Date,TemperatureHighF,TemperatureAvgF,TemperatureLowF,DewpointHighF,DewpointAvgF,DewpointLowF,HumidityHigh,HumidityAvg,HumidityLow,PressureMaxIn,PressureMinIn,WindSpeedMaxMPH,WindSpeedAvgMPH,GustSpeedMaxMPH,PrecipitationSumIn
2013-4-1,91.0,79.5,71.2,81.0,75.1,71.0,99,88,60,29.79,29.69,4,2,9,0.00
2013-4-2,89.8,78.2,69.3,76.3,71.9,67.4,99,84,48,29.82,29.73,6,1,7,0.00
2013-4-3,88.2,78.7,70.9,78.4,75.0,70.6,99,89,69,29.79,29.66,8,4,11,0.00
2013-4-4,89.8,80.4,75.2,81.8,77.3,75.0,99,91,72,29.75,29.69,9,3,11,0.00
2013-4-5,78.3,71.1,65.8,78.0,70.8,65.6,99,99,99,29.73,29.55,11,3,11,1.24
2013-4-6,81.7,71.2,64.9,68.5,64.3,60.9,99,81,50,29.82,29.70,10,3,12,0.01
2013-4-7,86.2,76.6,68.0,73.5,70.5,67.7,99,83,57,29.82,29.72,12,4,13,0.00
2013-4-8,86.9,79.1,73.6,75.1,73.1,71.1,99,83,63,29.82,29.74,11,5,13,0.00
2013-4-9,88.2,80.0,73.8,77.2,74.8,72.3,99,85,66,29.84,29.74,12,5,12,0.00
2013-4-10,88.3,80.9,75.2,80.5,78.0,75.0,99,91,74,29.80,29.66,11,6,13,0.00
2013-4-11,90.0,82.5,77.5,81.5,79.4,77.3,99,91,72,29.72,29.58,11,5,14,0.00
2013-4-12,91.9,83.5,76.6,82.2,79.3,76.4,99,88,63,29.69,29.59,7,2,9,0.00
2013-4-13,96.8,84.5,77.9,83.3,78.8,71.2,99,85,45,29.70,29.60,6,2,6,0.00
2013-4-14,92.3,84.1,78.3,81.1,78.9,76.8,99,86,63,29.69,29.59,10,4,12,0.00
2013-4-15,97.7,86.4,77.4,84.4,78.9,65.7,99,81,36,29.77,29.64,4,2,8,0.00
2013-4-16,92.5,84.9,79.7,81.9,79.5,75.4,99,85,63,29.81,29.72,8,4,14,0.00
2013-4-17,92.3,84.3,78.8,79.2,76.7,73.8,98,80,57,29.81,29.70,9,5,12,0.00
2013-4-18,93.2,83.9,78.6,79.6,77.3,75.0,99,82,57,29.75,29.66,12,6,13,0.00
2013-4-19,92.5,84.5,79.0,80.7,78.2,76.6,99,83,61,29.76,29.67,11,5,11,0.00
2013-4-20,97.2,85.3,77.5,84.8,79.4,74.9,99,84,49,29.81,29.68,5,2,8,0.00
2013-4-21,92.5,82.6,73.6,79.7,75.9,72.0,99,82,54,29.80,29.70,12,3,12,0.06
2013-4-22,94.1,81.6,73.6,79.6,76.3,72.8,99,86,51,29.78,29.65,6,2,7,0.08
2013-4-23,93.7,83.0,75.9,77.4,73.6,66.5,99,76,43,29.78,29.67,10,5,13,0.00
2013-4-24,91.2,82.8,74.8,72.4,70.0,67.6,88,67,49,29.84,29.74,11,5,13,0.00
2013-4-25,91.2,82.3,74.8,70.1,66.0,55.4,82,60,32,29.92,29.80,9,4,12,0.00
2013-4-26,89.1,80.9,73.2,68.8,66.6,62.6,84,64,43,29.93,29.84,10,5,12,0.00
2013-4-27,88.3,80.3,73.8,73.6,67.5,61.9,88,67,42,29.91,29.76,13,6,14,0.00
2013-4-28,90.1,81.4,75.7,76.8,72.4,69.4,99,76,52,29.80,29.67,11,5,17,0.00
2013-4-29,89.2,80.7,74.8,80.0,75.9,72.2,99,86,64,29.73,29.63,11,4,11,0.18
2013-4-30,94.8,84.6,76.8,79.1,77.4,73.2,99,81,50,29.71,29.62,6,3,9,0.00